DW6352 Weather Reports


Display with metric or nautical units.
time (UTC)temp
F
wind
direction
speed
MPH
gust
MPH
rain 1hr
in
rain 24hr
in
rain mn
in
humidity
%
barometer
mb
20190921043010 73 150 5.0 13.0 0.00 0.01 0.01 88 1013.4
20190921042509 73 150 5.0 13.0 0.00 0.01 0.01 88 1013.5
20190921042010 73 155 5.0 11.0 0.00 0.01 0.01 88 1013.5
20190921041510 73 155 4.0 10.0 0.00 0.01 0.01 89 1013.6
20190921041010 73 153 4.0 8.0 0.00 0.01 0.01 89 1013.6
20190921040510 73 153 4.0 10.0 0.00 0.01 0.01 89 1013.6
20190921040010 73 152 5.0 13.0 0.00 0.01 0.01 89 1013.6
20190921035510 73 150 5.0 13.0 0.00 0.01 0.01 89 1013.7
20190921035010 73 151 5.0 13.0 0.00 0.01 0.01 89 1013.8
20190921034510 73 149 4.0 13.0 0.00 0.01 0.01 89 1013.8
20190921034010 73 145 4.0 9.0 0.00 0.01 0.01 89 1013.7
20190921033510 73 143 5.0 9.0 0.00 0.01 0.01 89 1013.8
20190921033009 73 141 5.0 12.0 0.00 0.01 0.01 89 1013.8
20190921032511 73 142 5.0 12.0 0.00 0.01 0.01 89 1013.8
20190921032010 73 141 5.0 11.0 0.00 0.01 0.01 89 1013.9
20190921031510 73 146 5.0 11.0 0.00 0.01 0.01 89 1014.0
20190921031010 73 147 4.0 10.0 0.00 0.01 0.01 89 1013.8
20190921030510 73 140 4.0 10.0 0.00 0.01 0.01 89 1013.9
20190921030010 73 141 4.0 9.0 0.00 0.01 0.01 89 1014.0
20190921025510 73 141 4.0 10.0 0.00 0.01 0.01 89 1013.9
20190921025009 73 141 4.0 10.0 0.00 0.01 0.01 89 1014.0
20190921024510 73 144 4.0 9.0 0.00 0.01 0.01 89 1014.1
20190921024010 74 140 5.0 11.0 0.00 0.01 0.01 89 1014.0
20190921023510 74 138 5.0 12.0 0.00 0.01 0.01 89 1014.0
20190921023011 74 137 6.0 12.0 0.00 0.01 0.01 89 1014.0
20190921022510 74 133 5.0 11.0 0.00 0.01 0.01 89 1014.0
20190921022010 74 130 6.0 12.0 0.00 0.01 0.01 89 1014.1
20190921021510 74 128 6.0 12.0 0.00 0.01 0.01 89 1014.1
20190921021009 74 131 6.0 11.0 0.00 0.01 0.01 89 1014.1
20190921020510 74 134 6.0 9.0 0.00 0.01 0.01 89 1014.2
20190921020010 74 131 6.0 12.0 0.00 0.01 0.01 89 1014.3
20190921015510 74 132 6.0 12.0 0.00 0.01 0.01 89 1014.2
20190921015010 74 132 6.0 11.0 0.00 0.01 0.01 88 1014.3
20190921014510 74 130 6.0 11.0 0.00 0.01 0.01 88 1014.3
20190921014009 74 129 6.0 10.0 0.00 0.01 0.01 88 1014.3
20190921013510 74 125 6.0 12.0 0.00 0.01 0.01 88 1014.4
20190921013010 74 127 6.0 13.0 0.00 0.01 0.01 88 1014.4
20190921012510 74 133 6.0 13.0 0.00 0.01 0.01 88 1014.4
20190921012010 74 131 6.0 13.0 0.00 0.01 0.01 88 1014.4
20190921011510 74 129 6.0 13.0 0.00 0.01 0.01 87 1014.5
20190921011009 75 126 6.0 10.0 0.00 0.01 0.01 87 1014.4
20190921010510 75 124 5.0 11.0 0.00 0.01 0.01 87 1014.4
20190921010010 75 125 5.0 11.0 0.00 0.01 0.01 87 1014.4
20190921005510 75 126 5.0 8.0 0.00 0.01 0.01 86 1014.4
20190921005010 75 127 4.0 8.0 0.00 0.01 0.01 86 1014.5
20190921004510 75 128 5.0 8.0 0.00 0.01 0.01 86 1014.4
20190921004010 75 129 5.0 8.0 0.00 0.01 0.01 86 1014.5
20190921003510 76 131 4.0 7.0 0.00 0.01 0.01 85 1014.6
20190921003010 76 131 4.0 6.0 0.00 0.01 0.01 85 1014.6
20190921002509 76 130 4.0 8.0 0.00 0.01 0.01 84 1014.7
20190921002010 76 129 4.0 8.0 0.00 0.01 0.01 84 1014.7
20190921001512 76 128 4.0 7.0 0.00 0.01 0.01 83 1014.7
20190921001009 76 128 5.0 8.0 0.00 0.01 0.01 83 1014.7
20190921000512 77 129 5.0 10.0 0.00 0.01 0.01 83 1014.8
20190921000009 77 130 5.0 10.0 0.00 0.01 0.01 82 1014.7
20190920235510 77 132 6.0 10.0 0.00 0.01 0.01 82 1014.8
20190920235010 77 134 5.0 10.0 0.00 0.01 0.01 81 1014.9
20190920234510 77 134 5.0 10.0 0.00 0.01 0.01 81 1015.0
20190920234010 78 134 5.0 10.0 0.00 0.01 0.01 81 1015.0
20190920233510 78 131 4.0 9.0 0.00 0.01 0.01 80 1015.1
20190920233009 78 128 4.0 9.0 0.00 0.01 0.01 80 1015.1
20190920232509 78 131 4.0 9.0 0.00 0.01 0.01 80 1015.1
20190920232010 78 136 4.0 9.0 0.00 0.01 0.01 79 1015.0
20190920231511 78 134 5.0 10.0 0.00 0.01 0.01 79 1015.1
20190920231010 78 132 5.0 10.0 0.00 0.01 0.01 78 1015.1
20190920230510 79 134 5.0 10.0 0.00 0.01 0.01 78 1015.2
20190920230013 79 134 6.0 10.0 0.00 0.01 0.01 78 1015.2
20190920225511 79 134 6.0 14.0 0.00 0.01 0.01 78 1015.2
20190920225010 79 131 6.0 14.0 0.00 0.01 0.01 77 1015.2
20190920224510 79 136 6.0 12.0 0.00 0.01 0.01 76 1015.3
20190920224010 79 140 5.0 11.0 0.00 0.01 0.01 76 1015.5
20190920223510 79 143 4.0 10.0 0.00 0.01 0.01 76 1015.6
20190920223010 79 149 4.0 9.0 0.00 0.01 0.01 76 1015.6
20190920222510 79 142 4.0 9.0 0.00 0.01 0.01 76 1015.6
20190920222010 79 140 4.0 11.0 0.00 0.01 0.01 76 1015.5
20190920221510 79 141 5.0 13.0 0.00 0.01 0.01 75 1015.5
20190920221010 79 138 6.0 13.0 0.00 0.01 0.01 75 1015.6
20190920220510 79 132 7.0 14.0 0.00 0.01 0.01 76 1015.6
20190920220009 79 127 7.0 14.0 0.00 0.01 0.01 76 1015.5
20190920215510 79 130 6.0 12.0 0.00 0.01 0.01 76 1015.6
20190920215010 79 136 6.0 13.0 0.00 0.01 0.01 76 1015.5
20190920214510 79 136 6.0 14.0 0.00 0.01 0.01 76 1015.6
20190920214010 79 138 5.0 14.0 0.00 0.01 0.01 76 1015.7
20190920213509 79 133 6.0 13.0 0.00 0.01 0.01 77 1015.8
20190920213010 79 131 6.0 13.0 0.00 0.01 0.01 76 1015.8
20190920212509 79 130 6.0 11.0 0.00 0.01 0.01 76 1015.7
20190920212010 79 130 8.0 12.0 0.00 0.01 0.01 76 1015.7
20190920211510 79 134 7.0 12.0 0.00 0.01 0.01 75 1015.7
20190920211010 79 135 6.0 11.0 0.00 0.01 0.01 76 1015.7
20190920210510 79 131 6.0 11.0 0.00 0.01 0.01 76 1015.8
20190920210010 79 130 6.0 12.0 0.00 0.01 0.01 75 1015.8
20190920205510 79 128 7.0 13.0 0.00 0.01 0.01 75 1015.8
20190920205010 80 121 8.0 13.0 0.00 0.01 0.01 75 1015.8
20190920204510 80 121 8.0 12.0 0.00 0.01 0.01 75 1015.8
20190920204010 80 130 7.0 14.0 0.00 0.01 0.01 76 1015.7
20190920203509 80 127 7.0 15.0 0.00 0.01 0.01 74 1015.8
20190920203009 80 123 8.0 15.0 0.00 0.01 0.01 74 1015.9
20190920202510 80 132 6.0 15.0 0.00 0.01 0.01 74 1015.9
20190920202010 80 129 6.0 11.0 0.00 0.01 0.01 75 1015.9
20190920201510 80 124 7.0 11.0 0.00 0.01 0.01 75 1015.9
20190920201010 80 123 6.0 10.0 0.00 0.01 0.01 75 1016.0
20190920200510 79 128 5.0 9.0 0.00 0.01 0.01 75 1016.0
20190920200010 79 139 5.0 10.0 0.00 0.01 0.01 75 1016.1
20190920195509 79 136 5.0 10.0 0.00 0.01 0.01 75 1016.2
20190920195009 79 125 4.0 10.0 0.00 0.01 0.01 75 1016.1
20190920194510 80 127 6.0 11.0 0.00 0.01 0.01 75 1016.3
20190920194010 80 125 7.0 13.0 0.00 0.01 0.01 76 1016.4
20190920193510 80 120 7.0 13.0 0.00 0.01 0.01 75 1016.4
20190920193010 79 127 6.0 12.0 0.00 0.01 0.01 77 1016.4
20190920192509 79 123 6.0 10.0 0.00 0.01 0.01 76 1016.5
20190920192010 79 122 7.0 12.0 0.00 0.01 0.01 77 1016.4
20190920191510 79 126 6.0 12.0 0.00 0.01 0.01 76 1016.4
20190920191010 79 127 6.0 11.0 0.00 0.01 0.01 76 1016.4
20190920190509 79 137 6.0 11.0 0.00 0.01 0.01 75 1016.4
20190920190009 79 135 6.0 10.0 0.00 0.01 0.01 76 1016.4
20190920185510 79 126 6.0 11.0 0.00 0.01 0.01 77 1016.4
20190920185009 78 126 7.0 11.0 0.00 0.01 0.01 78 1016.4
20190920184509 78 126 7.0 15.0 0.00 0.01 0.01 76 1016.5
20190920184009 78 123 7.0 15.0 0.00 0.01 0.01 77 1016.5
20190920183510 78 122 6.0 12.0 0.00 0.01 0.01 77 1016.6
20190920183010 79 129 6.0 12.0 0.00 0.01 0.01 77 1016.7
20190920182510 78 130 6.0 12.0 0.00 0.01 0.01 78 1016.8
20190920182010 78 131 6.0 12.0 0.00 0.01 0.01 77 1016.7
20190920181510 78 134 6.0 12.0 0.00 0.01 0.01 78 1016.8
20190920181010 78 135 6.0 12.0 0.00 0.01 0.01 78 1016.8
20190920180511 77 142 6.0 12.0 0.00 0.01 0.01 79 1016.8
20190920180010 77 149 4.0 9.0 0.00 0.01 0.01 80 1016.9
20190920175510 76 146 4.0 9.0 0.00 0.01 0.01 81 1017.0
20190920175010 76 151 5.0 9.0 0.00 0.01 0.01 80 1017.0
20190920174509 76 143 5.0 11.0 0.00 0.01 0.01 79 1016.9
20190920174009 76 139 6.0 12.0 0.00 0.01 0.01 80 1017.0
20190920173509 76 139 6.0 12.0 0.00 0.01 0.01 81 1017.1
20190920173009 75 135 5.0 12.0 0.00 0.01 0.01 82 1017.2
20190920172509 75 146 5.0 12.0 0.00 0.01 0.01 81 1017.2
20190920172009 75 153 5.0 10.0 0.00 0.01 0.01 81 1017.2
20190920171509 75 142 6.0 15.0 0.00 0.01 0.01 82 1017.2
20190920171009 74 131 7.0 15.0 0.00 0.01 0.01 83 1017.1
20190920170510 74 135 7.0 14.0 0.00 0.01 0.01 83 1017.3
20190920170018 74 134 7.0 14.0 0.00 0.01 0.01 83 1017.3
20190920165510 74 131 7.0 14.0 0.00 0.01 0.01 82 1017.3
20190920165009 74 136 6.0 10.0 0.00 0.01 0.01 84 1017.3
20190920164509 74 134 7.0 15.0 0.00 0.01 0.01 85 1017.3
20190920164010 73 132 7.0 15.0 0.00 0.01 0.01 86 1017.3
20190920163510 73 142 6.0 14.0 0.00 0.01 0.01 89 1017.4
20190920163010 72 140 7.0 15.0 0.00 0.01 0.01 91 1017.5
20190920162509 72 140 6.0 15.0 0.00 0.01 0.01 93 1017.7
20190920162009 71 141 5.0 12.0 0.00 0.01 0.01 94 1017.7
20190920161509 71 133 6.0 11.0 0.00 0.01 0.01 95 1017.8
20190920161009 70 130 7.0 12.0 0.00 0.01 0.01 95 1017.8
20190920160509 70 131 6.0 12.0 0.00 0.01 0.01 96 1017.9
20190920160010 70 130 6.0 10.0 0.00 0.01 0.01 96 1017.9
20190920155510 69 121 6.0 9.0 0.00 0.01 0.01 96 1017.9
20190920155009 69 121 5.0 9.0 0.00 0.01 0.01 96 1017.9
20190920154509 69 127 5.0 9.0 0.00 0.01 0.01 97 1017.9
20190920154009 69 131 6.0 13.0 0.00 0.01 0.01 96 1017.9
20190920153509 68 131 5.0 13.0 0.00 0.01 0.01 97 1017.9
20190920153010 68 126 5.0 8.0 0.00 0.01 0.01 97 1018.0
20190920152510 68 129 4.0 8.0 0.00 0.01 0.01 97 1017.9
20190920152009 68 135 5.0 9.0 0.00 0.01 0.01 97 1018.0
20190920151509 67 135 5.0 11.0 0.00 0.01 0.01 96 1018.1
20190920151009 67 131 5.0 11.0 0.00 0.01 0.01 96 1018.2
20190920150510 67 129 4.0 9.0 0.00 0.01 0.01 97 1018.2
20190920150010 67 135 4.0 10.0 0.00 0.01 0.01 97 1018.3
20190920145510 67 139 4.0 10.0 0.00 0.01 0.01 96 1018.3
20190920145010 67 143 4.0 9.0 0.00 0.01 0.01 96 1018.4
20190920144509 67 141 5.0 9.0 0.00 0.01 0.01 96 1018.4
20190920144009 66 134 5.0 9.0 0.00 0.01 0.01 96 1018.5
20190920143509 66 131 5.0 11.0 0.00 0.01 0.01 97 1018.6
20190920143010 66 131 4.0 11.0 0.00 0.01 0.01 97 1018.6
20190920142510 66 128 4.0 8.0 0.00 0.01 0.01 97 1018.6
20190920142010 66 127 5.0 10.0 0.00 0.01 0.01 96 1018.5
20190920141509 66 129 5.0 10.0 0.00 0.01 0.01 96 1018.6
20190920141009 66 131 4.0 9.0 0.00 0.01 0.01 96 1018.7
20190920140509 66 136 4.0 7.0 0.00 0.01 0.01 96 1018.6
20190920140010 65 136 4.0 7.0 0.00 0.01 0.01 96 1018.7
20190920135510 65 137 4.0 7.0 0.00 0.01 0.01 96 1018.8
20190920135009 65 144 3.0 7.0 0.00 0.01 0.01 96 1018.8
20190920134509 65 138 3.0 9.0 0.00 0.01 0.01 96 1018.9
20190920134009 65 132 4.0 9.0 0.00 0.01 0.01 96 1019.0
20190920133510 65 129 4.0 7.0 0.00 0.01 0.01 96 1018.9
20190920133011 64 129 3.0 7.0 0.00 0.01 0.01 96 1018.9
20190920132510 64 128 3.0 7.0 0.00 0.01 0.01 96 1018.9
20190920132009 64 123 3.0 6.0 0.00 0.01 0.01 96 1019.0
20190920131509 64 124 3.0 6.0 0.00 0.01 0.01 96 1019.0
20190920131009 64 124 3.0 7.0 0.00 0.01 0.01 96 1019.0
20190920130509 64 125 3.0 7.0 0.00 0.01 0.01 96 1018.9
20190920130009 64 126 3.0 5.0 0.00 0.01 0.01 96 1018.9
20190920125510 64 117 3.0 6.0 0.00 0.01 0.01 96 1018.8
20190920125009 64 116 3.0 6.0 0.00 0.01 0.01 96 1018.7
20190920124509 64 115 2.0 5.0 0.00 0.01 0.01 96 1018.8
20190920124009 64 113 2.0 5.0 0.00 0.01 0.01 96 1018.7
20190920123509 64 119 2.0 4.0 0.00 0.01 0.01 96 1018.7
20190920123010 64 115 2.0 5.0 0.00 0.01 0.01 96 1018.7
20190920122510 64 115 2.0 5.0 0.00 0.01 0.01 96 1018.8
20190920122009 64 111 2.0 5.0 0.00 0.01 0.01 96 1018.9
20190920121509 64 115 2.0 5.0 0.00 0.01 0.01 96 1018.8
20190920121009 64 122 2.0 5.0 0.00 0.01 0.01 96 1018.8
20190920120510 64 122 2.0 5.0 0.00 0.01 0.01 96 1018.8
20190920120010 64 124 2.0 4.0 0.00 0.01 0.01 96 1018.7
20190920115509 64 117 1.0 4.0 0.00 0.01 0.01 96 1018.6
20190920115010 64 123 1.0 3.0 0.00 0.01 0.01 96 1018.6
20190920114509 64 131 2.0 4.0 0.00 0.01 0.01 96 1018.7
20190920114010 64 125 2.0 5.0 0.00 0.01 0.01 96 1018.6
20190920113510 64 123 2.0 5.0 0.00 0.01 0.01 96 1018.5
20190920113010 64 124 2.0 4.0 0.00 0.01 0.01 96 1018.5
20190920112509 64 129 1.0 4.0 0.00 0.01 0.01 96 1018.4
20190920112009 64 140 1.0 4.0 0.00 0.01 0.01 96 1018.4
20190920111509 64 134 2.0 4.0 0.00 0.01 0.01 96 1018.3
20190920111009 64 131 2.0 4.0 0.00 0.01 0.01 96 1018.3
20190920110509 64 132 2.0 4.0 0.00 0.01 0.01 96 1018.3
20190920110010 64 135 2.0 4.0 0.00 0.01 0.01 96 1018.3
20190920105509 64 142 2.0 5.0 0.00 0.01 0.01 96 1018.3
20190920105009 64 142 1.0 5.0 0.00 0.01 0.01 96 1018.3
20190920104509 64 138 1.0 3.0 0.00 0.01 0.01 96 1018.3
20190920104009 64 135 1.0 4.0 0.00 0.01 0.01 96 1018.3
20190920103510 64 134 2.0 4.0 0.00 0.01 0.01 96 1018.3
20190920103009 64 134 0.0 3.0 0.00 0.01 0.01 96 1018.3
20190920102509 64 0 0.0 0.0 0.00 0.01 0.01 96 1018.3
20190920102009 64 0 0.0 0.0 0.00 0.01 0.01 95 1018.3
20190920101509 64 131 0.0 1.0 0.00 0.01 0.01 95 1018.2
20190920101010 64 131 1.0 3.0 0.00 0.01 0.01 95 1018.2
20190920100510 64 129 1.0 3.0 0.01 0.01 0.01 95 1018.1
20190920100010 64 121 1.0 2.0 0.01 0.01 0.01 95 1018.2
20190920095509 64 114 0.0 2.0 0.01 0.01 0.01 95 1018.3
20190920095009 64 114 0.0 2.0 0.01 0.01 0.01 95 1018.3
20190920094510 64 114 0.0 1.0 0.01 0.01 0.01 95 1018.3
20190920094009 64 114 0.0 1.0 0.01 0.01 0.01 95 1018.3
20190920093510 64 113 0.0 2.0 0.01 0.01 0.01 95 1018.4
20190920093010 64 113 1.0 2.0 0.01 0.01 0.01 95 1018.5
20190920092509 64 112 1.0 2.0 0.01 0.01 0.01 95 1018.6
20190920092009 64 112 0.0 2.0 0.01 0.01 0.01 95 1018.6
20190920091517 64 0 0.0 0.0 0.01 0.01 0.01 95 1018.6
20190920091009 64 0 0.0 0.0 0.01 0.01 0.01 95 1018.5
20190920090509 64 111 0.0 1.0 0.00 0.00 0.00 95 1018.4
20190920090009 64 111 1.0 2.0 0.00 0.00 0.00 95 1018.4
20190920085509 64 111 1.0 2.0 0.00 0.00 0.00 95 1018.4
20190920085009 65 122 1.0 2.0 0.00 0.00 0.00 95 1018.4
20190920084509 65 131 1.0 2.0 0.00 0.00 0.00 95 1018.5
20190920084009 65 134 1.0 2.0 0.00 0.00 0.00 95 1018.5
20190920083509 65 134 1.0 2.0 0.00 0.00 0.00 95 1018.5
20190920083009 65 134 1.0 2.0 0.00 0.00 0.00 95 1018.6
20190920082509 65 135 1.0 3.0 0.00 0.00 0.00 95 1018.6
20190920082010 65 133 1.0 3.0 0.00 0.00 0.00 95 1018.6
20190920081509 64 131 1.0 3.0 0.00 0.00 0.00 95 1018.6
20190920081009 64 130 1.0 3.0 0.00 0.00 0.00 95 1018.7
20190920080509 64 131 0.0 3.0 0.00 0.00 0.00 95 1018.7
20190920080009 64 139 0.0 1.0 0.00 0.00 0.00 95 1018.7
20190920075509 64 139 0.0 2.0 0.00 0.00 0.00 95 1018.6
20190920075010 64 139 0.0 2.0 0.00 0.00 0.00 95 1018.6
20190920074509 64 137 1.0 3.0 0.00 0.00 0.00 95 1018.6
20190920074009 64 129 1.0 3.0 0.00 0.00 0.00 95 1018.5
20190920073509 63 120 0.0 2.0 0.00 0.00 0.00 95 1018.5
20190920073009 63 0 0.0 0.0 0.00 0.00 0.00 95 1018.4
20190920072509 63 0 0.0 0.0 0.00 0.00 0.00 94 1018.4
20190920072009 63 92 0.0 1.0 0.00 0.00 0.00 95 1018.4
20190920071509 63 92 0.0 1.0 0.00 0.00 0.00 94 1018.3
20190920071010 63 92 0.0 1.0 0.00 0.00 0.00 94 1018.4
20190920070510 63 0 0.0 0.0 0.00 0.00 0.00 94 1018.4
20190920070009 63 0 0.0 0.0 0.00 0.00 0.00 94 1018.6
20190920065509 63 0 0.0 0.0 0.00 0.00 0.00 94 1018.6
20190920065009 63 0 0.0 0.0 0.00 0.00 0.00 94 1018.6
20190920064509 63 0 0.0 0.0 0.00 0.00 0.00 94 1018.6
20190920064008 63 0 0.0 0.0 0.00 0.00 0.00 94 1018.6
20190920063509 63 0 0.0 0.0 0.00 0.00 0.00 94 1018.6
20190920063009 63 0 0.0 0.0 0.00 0.00 0.00 94 1018.5
20190920062509 63 0 0.0 0.0 0.00 0.00 0.00 94 1018.5
20190920062008 62 0 0.0 0.0 0.00 0.00 0.00 94 1018.4
20190920061509 62 0 0.0 0.0 0.00 0.00 0.00 93 1018.3
20190920061009 62 0 0.0 0.0 0.00 0.00 0.00 93 1018.2
20190920060509 62 0 0.0 0.0 0.00 0.00 0.00 93 1018.1
20190920060009 62 0 0.0 0.0 0.00 0.00 0.00 93 1018.1
20190920055509 62 0 0.0 0.0 0.00 0.00 0.00 93 1018.2
20190920055009 62 0 0.0 0.0 0.00 0.00 0.00 93 1018.0
20190920054509 63 0 0.0 0.0 0.00 0.00 0.00 93 1017.9
20190920054009 63 0 0.0 0.0 0.00 0.00 0.00 93 1017.8
20190920053509 63 0 0.0 0.0 0.00 0.00 0.00 93 1017.8
20190920053009 63 0 0.0 0.0 0.00 0.00 0.00 93 1017.8
20190920052509 63 0 0.0 0.0 0.00 0.00 0.00 93 1017.8
20190920052009 63 0 0.0 0.0 0.00 0.00 0.00 93 1017.8
20190920051509 63 0 0.0 0.0 0.00 0.00 0.00 93 1017.7
20190920051009 63 0 0.0 0.0 0.00 0.00 0.00 93 1017.7
20190920050509 63 0 0.0 0.0 0.00 0.00 0.00 93 1017.8
20190920050010 63 0 0.0 0.0 0.00 0.00 0.00 92 1017.7
20190920045510 63 0 0.0 0.0 0.00 0.00 0.00 92 1017.5
20190920045008 63 0 0.0 0.0 0.00 0.00 0.00 92 1017.7
20190920044509 64 0 0.0 0.0 0.00 0.00 0.00 92 1017.7
20190920044009 64 0 0.0 0.0 0.00 0.00 0.00 92 1017.7
20190920043509 64 0 0.0 0.0 0.00 0.00 0.00 92 1017.8